Stations météo

réclame
Mon MeteoGroup
Laupheim, Allemagne (10837): Température de l'air & dewpoint: 17.07.2018 00:00:00 - 23.07.2018 00:00:00 (CEST)Laupheim, Allemagne (10837): Vitesse du vent: 17.07.2018 00:00:00 - 23.07.2018 00:00:00 (CEST)Laupheim, Allemagne (10837): Direction du vent: 17.07.2018 00:00:00 - 23.07.2018 00:00:00 (CEST)Laupheim, Allemagne (10837): reduced air pressure: 17.07.2018 00:00:00 - 23.07.2018 00:00:00 (CEST)Laupheim, Allemagne (10837): visibility: 17.07.2018 00:00:00 - 23.07.2018 00:00:00 (CEST)
Date & Time tt [°C] td [°C] ff [km/h] ff [knt] dd ppp [hPa] vv [km]
23.07.2018 00:00:00 16,0 15,1 4 2 SW 1016,1 7
22.07.2018 23:00:00 16,4 15,3 7 4 WSW 1015,9 9
22.07.2018 22:00:00 16,5 15,3 7 4 SW 1015,8 10
22.07.2018 21:00:00 17,0 15,1 7 4 WSW 1015,0 11
22.07.2018 20:00:00 17,1 14,9 11 6 WSW 1014,8 12
22.07.2018 19:00:00 17,8 15,9 11 6 SW 1014,2 12
22.07.2018 18:00:00 17,2 16,0 11 6 SSW 1014,6 12
22.07.2018 17:00:00 16,5 15,3 2 1 - 1014,6 10
22.07.2018 16:00:00 18,9 15,8 4 2 SW 1013,7 15
22.07.2018 15:00:00 19,4 15,8 14 8 SW 1013,4 15
22.07.2018 14:00:00 19,7 15,7 18 10 WSW 1013,4 15
22.07.2018 13:00:00 20,3 15,8 18 10 WSW 1013,5 15
22.07.2018 12:00:00 19,0 15,5 18 10 WSW 1014,0 12
22.07.2018 11:00:00 18,2 15,7 14 8 SW 1014,1 12
22.07.2018 10:00:00 16,9 15,4 11 6 SW 1014,3 8
22.07.2018 09:00:00 16,6 15,5 11 6 SW 1014,3 8
22.07.2018 08:00:00 16,4 15,5 11 6 SW 1014,1 4,5
22.07.2018 07:00:00 16,1 15,3 7 4 SW 1013,8 4,5
22.07.2018 06:00:00 15,9 15,3 7 4 SW 1013,6 5
22.07.2018 05:00:00 16,0 15,3 7 4 SW 1013,5 15
22.07.2018 04:00:00 15,9 15,1 7 4 SW 1013,6 15
22.07.2018 03:00:00 15,9 15,1 7 4 WSW 1013,7 15
22.07.2018 02:00:00 16,0 15,1 11 6 WSW 1013,9 15
22.07.2018 01:00:00 16,0 15,1 11 6 WSW 1014,1 15
22.07.2018 00:00:00 15,9 14,8 11 6 WSW 1014,1 15
21.07.2018 23:00:00 16,2 14,9 11 6 WSW 1014,1 15
21.07.2018 22:00:00 16,8 15,2 11 6 WSW 1013,4 15
21.07.2018 21:00:00 17,1 16,0 11 6 WSW 1012,7 12
21.07.2018 20:00:00 17,5 15,9 11 6 WSW 1012,6 12
21.07.2018 19:00:00 17,3 16,2 11 6 WSW 1012,6 15
21.07.2018 18:00:00 17,3 16,3 11 6 W 1012,5 4,0
21.07.2018 17:00:00 19,0 15,0 4 2 NNW 1011,9 16
21.07.2018 16:00:00 18,8 15,7 8 4 NNE 1012,0 10
21.07.2018 15:00:00 18,9 15,7 7 4 N 1012,1 15
21.07.2018 14:00:00 18,4 14,0 5 3 NW 1012,5 2,5
21.07.2018 13:00:00 19,9 15,3 4 2 N 1012,0 12
21.07.2018 12:00:00 17,9 16,0 4 2 WSW 1012,5 10
21.07.2018 11:00:00 17,6 15,6 7 4 WSW 1012,4 12
21.07.2018 10:00:00 17,4 15,3 11 6 WSW 1012,5 15
21.07.2018 09:00:00 17,1 14,9 11 6 SW 1012,1 15
21.07.2018 08:00:00 17,3 14,9 7 4 SW 1011,9 20
21.07.2018 07:00:00 17,3 14,7 7 4 W 1011,7 20
21.07.2018 06:00:00 17,2 14,6 11 6 SSW 1011,6 20
21.07.2018 05:00:00 17,6 14,4 7 4 SSW 1011,7 20
21.07.2018 04:00:00 17,6 14,3 7 4 S 1011,7 20
21.07.2018 03:00:00 17,2 14,4 11 6 SSW 1011,9 20
21.07.2018 02:00:00 17,7 14,4 7 4 SSW 1012,3 20
21.07.2018 01:00:00 18,1 14,2 7 4 N 1012,3 25
21.07.2018 00:00:00 18,4 15,0 11 6 SSW 1012,2 25
20.07.2018 23:00:00 19,7 13,7 7 4 SW 1012,0 25
20.07.2018 22:00:00 20,2 12,5 4 2 N 1011,4 25
20.07.2018 21:00:00 21,3 11,1 4 2 ENE 1011,1 30
20.07.2018 20:00:00 22,1 11,8 14 8 NW 1011,4 20
20.07.2018 19:00:00 25,2 15,4 7 4 WSW 1010,0 20
20.07.2018 18:00:00 26,3 12,1 4 2 SSE 1009,5 30
20.07.2018 17:00:00 25,7 12,4 7 4 ESE 1010,1 30
20.07.2018 16:00:00 23,6 17,3 11 6 SSE 1011,6 30
20.07.2018 15:00:00 25,0 12,6 7 4 N 1011,1 30
20.07.2018 14:00:00 25,5 10,9 11 6 WNW 1011,4 30
20.07.2018 13:00:00 27,4 12,0 4 2 WNW 1011,1 30
20.07.2018 12:00:00 25,8 12,9 4 2 N 1012,0 27
20.07.2018 11:00:00 23,3 12,5 4 2 WSW 1012,6 27
20.07.2018 10:00:00 22,0 12,5 4 2 W 1013,0 27
20.07.2018 09:00:00 19,6 11,9 7 4 ENE 1013,6 28
20.07.2018 08:00:00 17,1 10,5 0 0 N 1014,3 28
20.07.2018 07:00:00 15,1 11,3 0 0 N 1014,8 28
20.07.2018 06:00:00 14,2 11,2 4 2 ENE 1015,0 25
20.07.2018 05:00:00 14,6 11,3 4 2 NNE 1015,1 20
20.07.2018 04:00:00 15,0 10,6 4 2 N 1015,1 20
20.07.2018 03:00:00 15,6 10,5 0 0 N 1015,4 20
20.07.2018 02:00:00 17,0 11,0 4 2 ENE 1015,4 20
20.07.2018 01:00:00 17,7 10,9 4 2 NNE 1015,5 20
20.07.2018 00:00:00 18,7 11,9 7 4 ENE 1015,2 20
19.07.2018 23:00:00 20,1 10,5 4 2 ENE 1015,0 25
19.07.2018 22:00:00 21,6 9,9 4 2 E 1014,3 25
19.07.2018 21:00:00 24,2 9,8 7 4 NNE 1013,2 30
19.07.2018 20:00:00 25,9 9,0 11 6 ENE 1012,8 30
19.07.2018 19:00:00 26,7 9,3 7 4 ENE 1012,6 30
19.07.2018 18:00:00 27,3 9,7 7 4 ENE 1012,8 30
19.07.2018 17:00:00 27,2 9,6 11 6 ENE 1013,4 30
19.07.2018 16:00:00 26,4 9,2 7 4 E 1014,0 30
19.07.2018 15:00:00 26,0 9,4 7 4 NE 1014,4 30
19.07.2018 14:00:00 25,8 10,5 11 6 NE 1014,8 35
19.07.2018 13:00:00 24,7 10,2 11 6 NE 1015,4 35
19.07.2018 12:00:00 24,2 11,2 11 6 NE 1015,5 35
19.07.2018 11:00:00 22,7 11,0 7 4 NE 1016,1 35
19.07.2018 10:00:00 20,8 11,1 7 4 ENE 1016,5 28
19.07.2018 09:00:00 18,6 10,4 11 6 NE 1016,9 28
19.07.2018 08:00:00 16,6 11,2 7 4 NNE 1017,3 28
19.07.2018 07:00:00 15,0 11,8 0 0 N 1017,3 28
19.07.2018 06:00:00 13,9 11,3 4 2 NNE 1017,5 25
19.07.2018 05:00:00 13,8 10,7 4 2 ENE 1017,5 25
19.07.2018 04:00:00 15,7 11,7 4 2 WSW 1017,3 25
19.07.2018 03:00:00 16,0 11,6 4 2 WSW 1017,2 25
19.07.2018 02:00:00 16,7 11,5 0 0 N 1017,1 25
19.07.2018 01:00:00 17,8 11,3 4 2 N 1016,7 25
19.07.2018 00:00:00 18,6 11,5 4 2 ENE 1016,4 25
18.07.2018 23:00:00 20,2 11,4 7 4 NNE 1015,8 25
18.07.2018 22:00:00 21,0 11,5 7 4 NNE 1015,2 30
18.07.2018 21:00:00 23,3 10,9 7 4 N 1014,1 35
18.07.2018 20:00:00 25,4 10,8 11 6 NNE 1013,6 35
18.07.2018 19:00:00 26,4 10,6 7 4 NNE 1013,2 35
18.07.2018 18:00:00 26,8 11,1 11 6 NNE 1013,5 35
18.07.2018 17:00:00 26,7 11,3 11 6 N 1013,7 35
18.07.2018 16:00:00 26,7 11,7 11 6 NE 1014,0 40
18.07.2018 15:00:00 25,3 11,5 11 6 NNE 1014,5 40
18.07.2018 14:00:00 25,7 12,2 11 6 SSW 1014,9 40
18.07.2018 13:00:00 24,8 11,7 7 4 SSW 1015,5 40
18.07.2018 12:00:00 23,8 12,0 4 2 ENE 1016,0 40
18.07.2018 11:00:00 22,8 12,4 4 2 N 1016,4 35
18.07.2018 10:00:00 20,6 13,0 4 2 SW 1017,1 35
18.07.2018 09:00:00 18,8 13,8 7 4 WSW 1017,6 30
18.07.2018 08:00:00 16,1 12,7 4 2 W 1018,2 30
18.07.2018 07:00:00 14,0 12,0 4 2 S 1018,6 28
18.07.2018 06:00:00 13,4 11,3 4 2 N 1018,5 28
18.07.2018 05:00:00 14,6 11,9 4 2 SSW 1018,1 28
18.07.2018 04:00:00 14,9 11,7 7 4 SW 1018,0 30
18.07.2018 03:00:00 15,5 12,0 11 6 SSW 1017,8 30
18.07.2018 02:00:00 16,6 11,6 11 6 SW 1017,6 30
18.07.2018 01:00:00 17,4 11,7 7 4 WSW 1017,2 30
18.07.2018 00:00:00 17,9 12,4 11 6 SW 1017,0 35
17.07.2018 23:00:00 17,3 13,0 11 6 SSW 1017,2 35
17.07.2018 22:00:00 16,8 13,0 4 2 WSW 1017,3 35
17.07.2018 21:00:00 17,8 13,6 7 4 S 1016,2 35
17.07.2018 20:00:00 18,1 13,6 11 6 S 1015,8 9
17.07.2018 19:00:00 17,7 14,2 11 6 NE 1016,7 9
17.07.2018 18:00:00 24,3 10,5 18 10 SSW 1013,6 20
17.07.2018 17:00:00 26,4 8,8 11 6 W 1013,0 18
17.07.2018 16:00:00 24,2 11,6 14 8 SSW 1013,8 20
17.07.2018 15:00:00 25,8 11,0 11 6 WSW 1013,0 20
17.07.2018 14:00:00 24,7 11,4 11 6 S 1013,5 18
17.07.2018 13:00:00 21,7 12,4 9 5 WSW 1014,8 10
17.07.2018 12:00:00 24,0 10,1 7 4 WNW 1013,9 30
17.07.2018 11:00:00 23,7 12,3 7 4 SW 1013,9 30
17.07.2018 10:00:00 21,3 13,8 11 6 SW 1014,5 30
17.07.2018 09:00:00 18,0 13,6 7 4 SSW 1015,1 25
17.07.2018 08:00:00 15,1 12,6 7 4 SW 1015,7 22
17.07.2018 07:00:00 12,8 11,3 7 4 SW 1015,9 20
17.07.2018 06:00:00 12,4 11,1 4 2 S 1015,7 20
17.07.2018 05:00:00 12,9 11,6 4 2 SE 1015,3 30
17.07.2018 04:00:00 13,1 11,6 0 0 N 1014,9 30
17.07.2018 03:00:00 13,8 11,9 7 4 SW 1014,8 30
17.07.2018 02:00:00 14,6 12,6 4 2 SSW 1014,5 30
17.07.2018 01:00:00 14,3 11,9 4 2 N 1014,1 30
17.07.2018 00:00:00 16,2 12,8 0 0 N 1013,3 30

tt = Température de l'air
td = dewpoint
ff = Vitesse du vent
dd = Direction du vent
ppp = reduced air pressure
vv = visibility

stations d'obs. à proximité